When you browse on this site, cookies collect data to enhance your experience and personalize the content and advertising you see.
Visit our Privacy Policy to learn more. By continuing to use the site, you agree to this use of cookies and data.
  • In United Kingdom
  • List of Countries
  • For 7 days
  • Water Temperature
  • Weather Map
  • Weather Widgets
  • user-avatar
    Login

    Hourly Weather Chlopy

    Today, 12 November, Tuesday

    Time Temperature Precipitation Wind Pressure Humidity
    00:00 +2°C° 0 mm 7 mps 756 mmHg 80%
    01:00 +2°C° 0 mm 7 mps 756 mmHg 81%
    02:00 +2°C° 0 mm 7 mps 756 mmHg 82%
    03:00 +2°C° 0 mm 7 mps 755 mmHg 83%
    04:00 +2°C° 0 mm 7 mps 755 mmHg 84%
    05:00 +2°C° 0 mm 7 mps 755 mmHg 85%
    06:00 +2°C° 0 mm 6 mps 754 mmHg 85%
    07:00 +2°C° 0 mm 6 mps 754 mmHg 83%
    08:00 +2°C° 0.2 mm 6 mps 754 mmHg 82%
    09:00 +3°C° 0.2 mm 6 mps 755 mmHg 82%
    10:00 +3°C° 0.2 mm 5 mps 755 mmHg 81%
    11:00 +3°C° 0.1 mm 5 mps 755 mmHg 79%
    12:00 +4°C° 0.1 mm 6 mps 755 mmHg 78%
    13:00 +4°C° 0.1 mm 6 mps 755 mmHg 76%
    14:00 +5°C° 0 mm 5 mps 755 mmHg 77%
    15:00 +5°C° 0 mm 5 mps 755 mmHg 78%
    16:00 +5°C° 0 mm 5 mps 755 mmHg 79%
    17:00 +5°C° 0 mm 5 mps 755 mmHg 80%
    18:00 +3°C° 0 mm 5 mps 755 mmHg 82%
    19:00 +3°C° 0 mm 5 mps 755 mmHg 84%
    20:00 +3°C° 0 mm 5 mps 755 mmHg 86%
    21:00 +4°C° 0 mm 4 mps 755 mmHg 87%
    22:00 +4°C° 0 mm 4 mps 754 mmHg 88%
    23:00 +4°C° 0 mm 4 mps 754 mmHg 88%

    Tomorrow, 13 November, Wednesday

    Time Temperature Precipitation Wind Pressure Humidity
    00:00 +4°C° 0 mm 4 mps 754 mmHg 88%
    01:00 +4°C° 0 mm 3 mps 754 mmHg 88%
    02:00 +4°C° 0 mm 3 mps 754 mmHg 88%
    03:00 +4°C° 0 mm 3 mps 753 mmHg 88%
    04:00 +4°C° 0 mm 3 mps 753 mmHg 89%
    05:00 +4°C° 0.1 mm 3 mps 753 mmHg 89%
    06:00 +5°C° 0.1 mm 2 mps 752 mmHg 90%
    07:00 +5°C° 0.1 mm 2 mps 752 mmHg 90%
    08:00 +5°C° 0.1 mm 2 mps 752 mmHg 90%
    09:00 +6°C° 0.1 mm 1 mps 752 mmHg 90%
    10:00 +5°C° 0.1 mm 0 mps 751 mmHg 90%
    11:00 +5°C° 0.3 mm 0 mps 751 mmHg 91%
    12:00 +5°C° 0.3 mm 0 mps 751 mmHg 92%
    13:00 +7°C° 0.3 mm 1 mps 751 mmHg 92%
    14:00 +6°C° 0.5 mm 0 mps 750 mmHg 93%
    15:00 +6°C° 0.5 mm 0 mps 750 mmHg 94%
    16:00 +6°C° 0.5 mm 0 mps 750 mmHg 94%
    17:00 +7°C° 0.3 mm 1 mps 750 mmHg 94%
    18:00 +6°C° 0.3 mm 2 mps 751 mmHg 93%
    19:00 +5°C° 0.3 mm 3 mps 751 mmHg 92%
    20:00 +5°C° 0 mm 2 mps 751 mmHg 91%
    21:00 +5°C° 0 mm 2 mps 751 mmHg 91%
    22:00 +5°C° 0 mm 2 mps 751 mmHg 90%
    23:00 +4°C° 0.5 mm 3 mps 751 mmHg 90%

    Day after tomorrow, 14 November, Thursday

    Time Temperature Precipitation Wind Pressure Humidity
    00:00 +4°C° 0.5 mm 3 mps 751 mmHg 90%
    01:00 +4°C° 0.5 mm 3 mps 751 mmHg 90%
    02:00 +4°C° 0.8 mm 3 mps 751 mmHg 91%
    03:00 +4°C° 0.8 mm 3 mps 751 mmHg 91%
    04:00 +4°C° 0.8 mm 3 mps 751 mmHg 92%
    05:00 +4°C° 0.8 mm 3 mps 751 mmHg 91%
    06:00 +4°C° 0.8 mm 3 mps 752 mmHg 90%
    07:00 +4°C° 0.8 mm 3 mps 753 mmHg 90%
    08:00 +4°C° 0 mm 3 mps 753 mmHg 87%
    09:00 +4°C° 0 mm 3 mps 754 mmHg 85%
    10:00 +4°C° 0 mm 4 mps 755 mmHg 83%
    11:00 +5°C° 0 mm 3 mps 756 mmHg 80%
    12:00 +7°C° 0 mm 3 mps 756 mmHg 76%
    13:00 +7°C° 0 mm 2 mps 757 mmHg 73%
    14:00 +7°C° 0 mm 2 mps 757 mmHg 75%
    15:00 +6°C° 0 mm 2 mps 758 mmHg 78%
    16:00 +7°C° 0 mm 1 mps 758 mmHg 80%
    17:00 +5°C° 0 mm 2 mps 758 mmHg 82%
    18:00 +4°C° 0 mm 3 mps 759 mmHg 85%
    19:00 +3°C° 0 mm 3 mps 759 mmHg 87%
    20:00 +3°C° 0 mm 3 mps 759 mmHg 88%
    21:00 +3°C° 0 mm 4 mps 759 mmHg 89%
    22:00 +3°C° 0 mm 4 mps 760 mmHg 90%
    23:00 +2°C° 0 mm 5 mps 759 mmHg 90%

    15 November, Friday

    Time Temperature Precipitation Wind Pressure Humidity
    00:00 +2°C° 0 mm 5 mps 759 mmHg 89%
    01:00 +2°C° 0 mm 6 mps 759 mmHg 89%
    02:00 +3°C° 0 mm 7 mps 759 mmHg 88%
    03:00 +3°C° 0 mm 7 mps 758 mmHg 86%
    04:00 +4°C° 0 mm 8 mps 758 mmHg 85%
    05:00 +4°C° 0 mm 8 mps 758 mmHg 87%
    06:00 +5°C° 0 mm 8 mps 757 mmHg 89%
    07:00 +5°C° 0 mm 9 mps 757 mmHg 91%
    08:00 +6°C° 0 mm 9 mps 757 mmHg 91%
    09:00 +7°C° 0 mm 8 mps 757 mmHg 91%
    10:00 +9°C° 0 mm 8 mps 757 mmHg 91%
    11:00 +10°C° 0 mm 8 mps 757 mmHg 86%
    12:00 +11°C° 0 mm 8 mps 756 mmHg 82%
    13:00 +12°C° 0 mm 7 mps 756 mmHg 77%
    14:00 +11°C° 0 mm 7 mps 756 mmHg 78%
    15:00 +11°C° 0 mm 7 mps 756 mmHg 80%
    16:00 +10°C° 0 mm 7 mps 755 mmHg 81%
    17:00 +10°C° 0 mm 7 mps 756 mmHg 82%
    18:00 +10°C° 0 mm 7 mps 756 mmHg 82%
    19:00 +10°C° 0 mm 7 mps 756 mmHg 83%
    20:00 +10°C° 0 mm 6 mps 756 mmHg 82%
    21:00 +10°C° 0 mm 6 mps 756 mmHg 81%
    22:00 +10°C° 0 mm 6 mps 756 mmHg 81%
    23:00 +10°C° 0 mm 6 mps 756 mmHg 81%

    16 November, Saturday

    Time Temperature Precipitation Wind Pressure Humidity
    00:00 +10°C° 0 mm 6 mps 756 mmHg 82%
    01:00 +10°C° 0 mm 6 mps 756 mmHg 83%
    02:00 +10°C° 0 mm 6 mps 755 mmHg 83%
    03:00 +10°C° 0 mm 6 mps 755 mmHg 84%
    04:00 +10°C° 0 mm 6 mps 755 mmHg 84%
    05:00 +10°C° 0 mm 7 mps 755 mmHg 83%
    06:00 +10°C° 0 mm 7 mps 755 mmHg 81%
    07:00 +10°C° 0 mm 8 mps 754 mmHg 79%
    08:00 +11°C° 0 mm 8 mps 755 mmHg 78%
    09:00 +11°C° 0 mm 8 mps 755 mmHg 77%
    10:00 +11°C° 0 mm 8 mps 756 mmHg 76%
    11:00 +11°C° 0 mm 8 mps 757 mmHg 75%
    12:00 +10°C° 0 mm 8 mps 757 mmHg 75%
    13:00 +9°C° 0 mm 7 mps 758 mmHg 75%
    14:00 +8°C° 0 mm 7 mps 759 mmHg 75%
    15:00 +7°C° 0 mm 6 mps 759 mmHg 76%
    16:00 +7°C° 0 mm 5 mps 760 mmHg 76%
    17:00 +6°C° 0 mm 4 mps 761 mmHg 79%
    18:00 +5°C° 0 mm 4 mps 761 mmHg 82%
    19:00 +5°C° 0 mm 3 mps 762 mmHg 84%
    20:00 +5°C° 0 mm 3 mps 762 mmHg 85%
    21:00 +4°C° 0 mm 3 mps 763 mmHg 87%
    22:00 +4°C° 0 mm 3 mps 763 mmHg 88%
    23:00 +4°C° 0 mm 3 mps 763 mmHg 87%

    17 November, Sunday

    Time Temperature Precipitation Wind Pressure Humidity
    00:00 +5°C° 0 mm 2 mps 763 mmHg 87%
    01:00 +5°C° 0 mm 2 mps 763 mmHg 86%
    02:00 +5°C° 0 mm 2 mps 763 mmHg 86%
    03:00 +4°C° 0 mm 3 mps 763 mmHg 85%
    04:00 +5°C° 0 mm 3 mps 763 mmHg 85%
    05:00 +5°C° 0.4 mm 4 mps 762 mmHg 87%
    06:00 +5°C° 0.4 mm 5 mps 762 mmHg 89%
    07:00 +5°C° 0.4 mm 6 mps 762 mmHg 91%
    08:00 +5°C° 0.8 mm 6 mps 761 mmHg 91%
    09:00 +7°C° 0.8 mm 6 mps 761 mmHg 91%
    10:00 +8°C° 0.8 mm 6 mps 760 mmHg 90%
    11:00 +9°C° 0 mm 6 mps 760 mmHg 86%
    12:00 +10°C° 0 mm 6 mps 759 mmHg 81%
    13:00 +12°C° 0 mm 5 mps 758 mmHg 77%
    14:00 +10°C° 0 mm 5 mps 758 mmHg 79%
    15:00 +10°C° 0 mm 5 mps 758 mmHg 82%
    16:00 +9°C° 0 mm 5 mps 757 mmHg 84%
    17:00 +9°C° 0 mm 5 mps 757 mmHg 85%
    18:00 +9°C° 0 mm 6 mps 757 mmHg 86%
    19:00 +8°C° 0 mm 6 mps 757 mmHg 87%
    20:00 +8°C° 0 mm 6 mps 757 mmHg 87%
    21:00 +8°C° 0 mm 5 mps 758 mmHg 88%
    22:00 +8°C° 0 mm 5 mps 758 mmHg 88%
    23:00 +7°C° 0 mm 5 mps 757 mmHg 88%
    Show more